JA88PH RJTI-RJTI

Flight info

Callsign JA88PH
Flight time 0h 10m
Altitude 2000
Route MYOKEN MISATO KOMATSUGAWA
Aircraft R66/L-SDGLOV/S

Departure

Time 2026-04-14 12:33
Airport Tokyo Heliport (RJTI)

Arrival

Time 2026-04-14 12:43
Airport Tokyo Heliport (RJTI)
Time Latitude Longitude Altitude Speed Heading
2026-04-14 12:28 35.63623 139.83770 20 ft 0 kts
2026-04-14 12:31 35.63634 139.83789 28 ft 8 kts 74°
2026-04-14 12:31 35.63588 139.83822 44 ft 8 kts 179°
2026-04-14 12:32 35.63557 139.83886 42 ft 11 kts 98°
2026-04-14 12:32 35.63583 139.83947 39 ft 6 kts
2026-04-14 12:32 35.63599 139.83949 65 ft 9 kts
2026-04-14 12:32 35.63843 139.83959 169 ft 51 kts 10°
2026-04-14 12:33 35.63901 139.84275 360 ft 59 kts 120°
2026-04-14 12:33 35.63654 139.84713 574 ft 62 kts 117°
2026-04-14 12:33 35.63525 139.85277 640 ft 71 kts 102°
2026-04-14 12:33 35.63438 139.85903 622 ft 78 kts 96°
2026-04-14 12:34 35.63418 139.86586 586 ft 84 kts 83°
2026-04-14 12:34 35.63702 139.87213 617 ft 83 kts 51°
2026-04-14 12:34 35.64102 139.87786 481 ft 96 kts 51°
2026-04-14 12:34 35.64577 139.88376 466 ft 97 kts 32°
2026-04-14 12:35 35.65218 139.88644 477 ft 98 kts 15°
2026-04-14 12:35 35.65903 139.88759 424 ft 104 kts
2026-04-14 12:35 35.66608 139.88694 472 ft 104 kts 354°
2026-04-14 12:35 35.67354 139.88564 470 ft 110 kts
2026-04-14 12:36 35.68109 139.88709 559 ft 109 kts 17°
2026-04-14 12:36 35.68794 139.88950 836 ft 91 kts 21°
2026-04-14 12:36 35.69381 139.89171 1172 ft 83 kts 19°
2026-04-14 12:36 35.69948 139.89226 1429 ft 87 kts
2026-04-14 12:37 35.70631 139.89220 1430 ft 106 kts 358°
2026-04-14 12:37 35.71386 139.89156 1424 ft 115 kts 357°
2026-04-14 12:37 35.72146 139.89092 1537 ft 109 kts 352°
2026-04-14 12:37 35.72834 139.88890 1603 ft 100 kts 342°
2026-04-14 12:38 35.74026 139.88336 1339 ft 105 kts 321°
2026-04-14 12:38 35.74267 139.87629 1309 ft 87 kts 259°
2026-04-14 12:38 35.74138 139.86929 1249 ft 84 kts 240°
2026-04-14 12:39 35.73867 139.86312 1080 ft 90 kts 228°
2026-04-14 12:39 35.73539 139.85680 1117 ft 82 kts 230°
2026-04-14 12:39 35.73331 139.85294 1107 ft 80 kts 229°
2026-04-14 12:39 35.73069 139.84769 1187 ft 66 kts 233°
2026-04-14 12:40 35.72773 139.84373 1169 ft 65 kts 201°
2026-04-14 12:40 35.72336 139.84272 1118 ft 71 kts 179°
2026-04-14 12:40 35.71842 139.84374 1123 ft 71 kts 156°
2026-04-14 12:40 35.71343 139.84710 930 ft 95 kts 142°
2026-04-14 12:41 35.70805 139.85264 806 ft 101 kts 142°
2026-04-14 12:41 35.70157 139.85565 809 ft 100 kts 167°
2026-04-14 12:41 35.69483 139.85596 810 ft 95 kts 184°
2026-04-14 12:41 35.68822 139.85380 685 ft 105 kts 201°
2026-04-14 12:42 35.68182 139.84961 658 ft 105 kts 199°
2026-04-14 12:42 35.67467 139.84695 635 ft 107 kts 185°
2026-04-14 12:42 35.66732 139.84622 638 ft 106 kts 178°
2026-04-14 12:42 35.66032 139.84557 712 ft 98 kts 184°
2026-04-14 12:43 35.65433 139.84508 813 ft 71 kts 179°
2026-04-14 12:43 35.64967 139.84493 682 ft 69 kts 174°
2026-04-14 12:43 35.64498 139.84508 507 ft 63 kts 175°
2026-04-14 12:43 35.64117 139.84460 448 ft 45 kts 181°
2026-04-14 12:44 35.63820 139.84390 385 ft 46 kts 184°
2026-04-14 12:44 35.63496 139.84341 354 ft 47 kts 178°
2026-04-14 12:44 35.63280 139.84121 215 ft 42 kts 281°
2026-04-14 12:45 35.63577 139.83952 59 ft 18 kts 17°
2026-04-14 12:45 35.63635 139.83901 37 ft 13 kts 286°
2026-04-14 12:45 35.63623 139.83805 31 ft 7 kts 253°
2026-04-14 12:45 35.63614 139.83771 33 ft 1 kts 11°
2026-04-14 12:46 35.63616 139.83772 24 ft 1 kts
2026-04-14 12:46 35.63616 139.83771 23 ft 0 kts